sat.trackr.live / text

‹ back to catalog

STARLINK-30708

NORAD 57944 · 2023-148K

PAYLOAD ACTIVE UNKNOWN

§ Identity

Operator
Country
US
Launch date
2023-09-25
Launch site
AFWTR
Launch vehicle
Mass (kg)
RCS (m²)

Purposes: comms

External: N2YO · Heavens-Above · Gunter

§ Orbital elements

Epoch: 2026-05-24T21:43:27.263424Z

Period
93.90 min
Inclination
53.1615°
Eccentricity
0.0000847
Mean motion
15.33551625 rev/d
Perigee alt
464.6 km
Apogee alt
465.8 km
Semi-major
6,843.4 km
B*
3.7380e-5
RAAN
30.1006°
Arg perigee
88.9651°
Mean anomaly
271.1448°
Rev number
15,009

§ Raw data

STARLINK-307081 57944U 23148K   26144.90517666  .00000857  00000+0  37380-4 0  99982 57944  53.1615  30.1006 0000847  88.9651 271.1448 15.33551625150096

JSON: /api/v1/satellites/57944 · /tle

For live sub-satellite position, see the globe view (requires WebGL).

§ Visibility from observer

Set your observer location to see the next 7 days of passes ≥ 10°. The values pass through the URL so the page stays shareable.

No JS? Fill the form by hand. The geolocation button needs JavaScript.